Aviation Digital Data Service (ADDS)

Output produced by METARs form (0459 UTC 21 September 2017)
found at http://www.aviationweather.gov/adds/metars/
 
ORBD 210455Z 34005KT 8000 HZ FEW200 31/04 A2973 RMK WND DATA ALSTG ESTMD
TAF ORBD 210300Z 2103/2209 VRB06KT 9000 HZ FEW200 QNH2965INS 
     TEMPO 2103/2107 6000 HZ 
     BECMG 2115/2116 32015G25KT 9000 HZ SKC QNH2960INS WND 270V030 TX45/2112Z TN27/2103Z
       
ORBI 210500Z 32007KT 9999 FEW045 31/09 Q1007 NOSIG
TAF ORBI 210400Z 2106/2206 28008KT 6000 NSC 
       
ORER 210500Z 00000KT 6000 HZ NSC 31/07 Q1012 NOSIG
TAF ORER 210400Z 2106/2206 30010KT 6000 NSC 
       
ORMM 210500Z 34006KT CAVOK 28/13 Q1005 NOSIG
TAF ORMM 210400Z 2106/2206 24008KT 8000 NSC 
     TEMPO 2106/2112 03010KT 
     BECMG 2118/2120 14010KT 
       
ORNI 210500Z 32005KT 4000 DU NSC 34/05 Q1007 NOSIG
TAF ORNI 210400Z 2106/2206 30010KT 6000 NSC 
       
ORSU 210500Z 15004KT 8000 NSC 31/04 Q1016
TAF ORSU 202300Z 2100/2200 VRB04KT 8000 NSC 
     BECMG 2108/2110 25006KT 9999 SCT045 
     BECMG 2117/2119 31008KT CAVOK
       
ORBD 210455Z 34005KT 8000 HZ FEW200 31/04 A2973 RMK WND DATA ALSTG ESTMD
TAF ORBD 210300Z 2103/2209 VRB06KT 9000 HZ FEW200 QNH2965INS 
     TEMPO 2103/2107 6000 HZ 
     BECMG 2115/2116 32015G25KT 9000 HZ SKC QNH2960INS WND 270V030 TX45/2112Z TN27/2103Z
       
ORBI 210500Z 32007KT 9999 FEW045 31/09 Q1007 NOSIG
TAF ORBI 210400Z 2106/2206 28008KT 6000 NSC 
       
ORER 210500Z 00000KT 6000 HZ NSC 31/07 Q1012 NOSIG
TAF ORER 210400Z 2106/2206 30010KT 6000 NSC 
       
ORMM 210500Z 34006KT CAVOK 28/13 Q1005 NOSIG
TAF ORMM 210400Z 2106/2206 24008KT 8000 NSC 
     TEMPO 2106/2112 03010KT 
     BECMG 2118/2120 14010KT 
       
ORNI 210500Z 32005KT 4000 DU NSC 34/05 Q1007 NOSIG
TAF ORNI 210400Z 2106/2206 30010KT 6000 NSC 
       
ORSU 210500Z 15004KT 8000 NSC 31/04 Q1016
TAF ORSU 202300Z 2100/2200 VRB04KT 8000 NSC 
     BECMG 2108/2110 25006KT 9999 SCT045 
     BECMG 2117/2119 31008KT CAVOK
       
ORBD 210455Z 34005KT 8000 HZ FEW200 31/04 A2973 RMK WND DATA ALSTG ESTMD
TAF ORBD 210300Z 2103/2209 VRB06KT 9000 HZ FEW200 QNH2965INS 
     TEMPO 2103/2107 6000 HZ 
     BECMG 2115/2116 32015G25KT 9000 HZ SKC QNH2960INS WND 270V030 TX45/2112Z TN27/2103Z
       
ORBI 210500Z 32007KT 9999 FEW045 31/09 Q1007 NOSIG
TAF ORBI 210400Z 2106/2206 28008KT 6000 NSC 
       
ORER 210500Z 00000KT 6000 HZ NSC 31/07 Q1012 NOSIG
TAF ORER 210400Z 2106/2206 30010KT 6000 NSC 
       
ORMM 210500Z 34006KT CAVOK 28/13 Q1005 NOSIG
TAF ORMM 210400Z 2106/2206 24008KT 8000 NSC 
     TEMPO 2106/2112 03010KT 
     BECMG 2118/2120 14010KT 
       
ORNI 210500Z 32005KT 4000 DU NSC 34/05 Q1007 NOSIG
TAF ORNI 210400Z 2106/2206 30010KT 6000 NSC 
       
ORSU 210500Z 15004KT 8000 NSC 31/04 Q1016
TAF ORSU 202300Z 2100/2200 VRB04KT 8000 NSC 
     BECMG 2108/2110 25006KT 9999 SCT045 
     BECMG 2117/2119 31008KT CAVOK
       
ORBD 210455Z 34005KT 8000 HZ FEW200 31/04 A2973 RMK WND DATA ALSTG ESTMD
TAF ORBD 210300Z 2103/2209 VRB06KT 9000 HZ FEW200 QNH2965INS 
     TEMPO 2103/2107 6000 HZ 
     BECMG 2115/2116 32015G25KT 9000 HZ SKC QNH2960INS WND 270V030 TX45/2112Z TN27/2103Z
       
ORBI 210500Z 32007KT 9999 FEW045 31/09 Q1007 NOSIG
TAF ORBI 210400Z 2106/2206 28008KT 6000 NSC 
       
ORER 210500Z 00000KT 6000 HZ NSC 31/07 Q1012 NOSIG
TAF ORER 210400Z 2106/2206 30010KT 6000 NSC 
       
ORMM 210500Z 34006KT CAVOK 28/13 Q1005 NOSIG
TAF ORMM 210400Z 2106/2206 24008KT 8000 NSC 
     TEMPO 2106/2112 03010KT 
     BECMG 2118/2120 14010KT 
       
ORNI 210500Z 32005KT 4000 DU NSC 34/05 Q1007 NOSIG
TAF ORNI 210400Z 2106/2206 30010KT 6000 NSC 
       
ORSU 210500Z 15004KT 8000 NSC 31/04 Q1016
TAF ORSU 202300Z 2100/2200 VRB04KT 8000 NSC 
     BECMG 2108/2110 25006KT 9999 SCT045 
     BECMG 2117/2119 31008KT CAVOK
       
ORBD 210455Z 34005KT 8000 HZ FEW200 31/04 A2973 RMK WND DATA ALSTG ESTMD
TAF ORBD 210300Z 2103/2209 VRB06KT 9000 HZ FEW200 QNH2965INS 
     TEMPO 2103/2107 6000 HZ 
     BECMG 2115/2116 32015G25KT 9000 HZ SKC QNH2960INS WND 270V030 TX45/2112Z TN27/2103Z
       
ORBI 210500Z 32007KT 9999 FEW045 31/09 Q1007 NOSIG
TAF ORBI 210400Z 2106/2206 28008KT 6000 NSC 
       
ORER 210500Z 00000KT 6000 HZ NSC 31/07 Q1012 NOSIG
TAF ORER 210400Z 2106/2206 30010KT 6000 NSC 
       
ORMM 210500Z 34006KT CAVOK 28/13 Q1005 NOSIG
TAF ORMM 210400Z 2106/2206 24008KT 8000 NSC 
     TEMPO 2106/2112 03010KT 
     BECMG 2118/2120 14010KT 
       
ORNI 210500Z 32005KT 4000 DU NSC 34/05 Q1007 NOSIG
TAF ORNI 210400Z 2106/2206 30010KT 6000 NSC 
       
ORSU 210500Z 15004KT 8000 NSC 31/04 Q1016
TAF ORSU 202300Z 2100/2200 VRB04KT 8000 NSC 
     BECMG 2108/2110 25006KT 9999 SCT045 
     BECMG 2117/2119 31008KT CAVOK
       
ORMM 210500Z 34006KT CAVOK 28/13 Q1005 NOSIG
TAF ORMM 210400Z 2106/2206 24008KT 8000 NSC 
     TEMPO 2106/2112 03010KT 
     BECMG 2118/2120 14010KT 
       
ORBD 210455Z 34005KT 8000 HZ FEW200 31/04 A2973 RMK WND DATA ALSTG ESTMD
TAF ORBD 210300Z 2103/2209 VRB06KT 9000 HZ FEW200 QNH2965INS 
     TEMPO 2103/2107 6000 HZ 
     BECMG 2115/2116 32015G25KT 9000 HZ SKC QNH2960INS WND 270V030 TX45/2112Z TN27/2103Z
       
ORBI 210500Z 32007KT 9999 FEW045 31/09 Q1007 NOSIG
TAF ORBI 210400Z 2106/2206 28008KT 6000 NSC 
       
ORER 210500Z 00000KT 6000 HZ NSC 31/07 Q1012 NOSIG
TAF ORER 210400Z 2106/2206 30010KT 6000 NSC 
       
ORMM 210500Z 34006KT CAVOK 28/13 Q1005 NOSIG
TAF ORMM 210400Z 2106/2206 24008KT 8000 NSC 
     TEMPO 2106/2112 03010KT 
     BECMG 2118/2120 14010KT 
       
ORNI 210500Z 32005KT 4000 DU NSC 34/05 Q1007 NOSIG
TAF ORNI 210400Z 2106/2206 30010KT 6000 NSC 
       
ORSU 210500Z 15004KT 8000 NSC 31/04 Q1016
TAF ORSU 202300Z 2100/2200 VRB04KT 8000 NSC 
     BECMG 2108/2110 25006KT 9999 SCT045 
     BECMG 2117/2119 31008KT CAVOK
       
ORBD 210455Z 34005KT 8000 HZ FEW200 31/04 A2973 RMK WND DATA ALSTG ESTMD
TAF ORBD 210300Z 2103/2209 VRB06KT 9000 HZ FEW200 QNH2965INS 
     TEMPO 2103/2107 6000 HZ 
     BECMG 2115/2116 32015G25KT 9000 HZ SKC QNH2960INS WND 270V030 TX45/2112Z TN27/2103Z
       
ORBI 210500Z 32007KT 9999 FEW045 31/09 Q1007 NOSIG
TAF ORBI 210400Z 2106/2206 28008KT 6000 NSC 
       
ORER 210500Z 00000KT 6000 HZ NSC 31/07 Q1012 NOSIG
TAF ORER 210400Z 2106/2206 30010KT 6000 NSC 
       
ORMM 210500Z 34006KT CAVOK 28/13 Q1005 NOSIG
TAF ORMM 210400Z 2106/2206 24008KT 8000 NSC 
     TEMPO 2106/2112 03010KT 
     BECMG 2118/2120 14010KT 
       
ORNI 210500Z 32005KT 4000 DU NSC 34/05 Q1007 NOSIG
TAF ORNI 210400Z 2106/2206 30010KT 6000 NSC 
       
ORSU 210500Z 15004KT 8000 NSC 31/04 Q1016
TAF ORSU 202300Z 2100/2200 VRB04KT 8000 NSC 
     BECMG 2108/2110 25006KT 9999 SCT045 
     BECMG 2117/2119 31008KT CAVOK
       
ORBD 210455Z 34005KT 8000 HZ FEW200 31/04 A2973 RMK WND DATA ALSTG ESTMD
TAF ORBD 210300Z 2103/2209 VRB06KT 9000 HZ FEW200 QNH2965INS 
     TEMPO 2103/2107 6000 HZ 
     BECMG 2115/2116 32015G25KT 9000 HZ SKC QNH2960INS WND 270V030 TX45/2112Z TN27/2103Z
       
ORBI 210500Z 32007KT 9999 FEW045 31/09 Q1007 NOSIG
TAF ORBI 210400Z 2106/2206 28008KT 6000 NSC 
       
ORER 210500Z 00000KT 6000 HZ NSC 31/07 Q1012 NOSIG
TAF ORER 210400Z 2106/2206 30010KT 6000 NSC 
       
ORMM 210500Z 34006KT CAVOK 28/13 Q1005 NOSIG
TAF ORMM 210400Z 2106/2206 24008KT 8000 NSC 
     TEMPO 2106/2112 03010KT 
     BECMG 2118/2120 14010KT 
       
ORNI 210500Z 32005KT 4000 DU NSC 34/05 Q1007 NOSIG
TAF ORNI 210400Z 2106/2206 30010KT 6000 NSC 
       
ORSU 210500Z 15004KT 8000 NSC 31/04 Q1016
TAF ORSU 202300Z 2100/2200 VRB04KT 8000 NSC 
     BECMG 2108/2110 25006KT 9999 SCT045 
     BECMG 2117/2119 31008KT CAVOK
       
ORBD 210455Z 34005KT 8000 HZ FEW200 31/04 A2973 RMK WND DATA ALSTG ESTMD
TAF ORBD 210300Z 2103/2209 VRB06KT 9000 HZ FEW200 QNH2965INS 
     TEMPO 2103/2107 6000 HZ 
     BECMG 2115/2116 32015G25KT 9000 HZ SKC QNH2960INS WND 270V030 TX45/2112Z TN27/2103Z
       
ORBI 210500Z 32007KT 9999 FEW045 31/09 Q1007 NOSIG
TAF ORBI 210400Z 2106/2206 28008KT 6000 NSC 
       
ORER 210500Z 00000KT 6000 HZ NSC 31/07 Q1012 NOSIG
TAF ORER 210400Z 2106/2206 30010KT 6000 NSC 
       
ORMM 210500Z 34006KT CAVOK 28/13 Q1005 NOSIG
TAF ORMM 210400Z 2106/2206 24008KT 8000 NSC 
     TEMPO 2106/2112 03010KT 
     BECMG 2118/2120 14010KT 
       
ORNI 210500Z 32005KT 4000 DU NSC 34/05 Q1007 NOSIG
TAF ORNI 210400Z 2106/2206 30010KT 6000 NSC 
       
ORSU 210500Z 15004KT 8000 NSC 31/04 Q1016
TAF ORSU 202300Z 2100/2200 VRB04KT 8000 NSC 
     BECMG 2108/2110 25006KT 9999 SCT045 
     BECMG 2117/2119 31008KT CAVOK